TimeCST,TemperatureF,Dew PointF,Humidity,Sea Level PressureIn,VisibilityMPH,Wind Direction,Wind SpeedMPH,Gust SpeedMPH,PrecipitationIn,Events,Conditions,WindDirDegrees,DateUTC
12:56 AM,55.9,44.1,64,29.70,-9999.0,NNW,11.5,17.3,N/A,,Unknown,340,2012-11-11 06:56:00
1:56 AM,46.0,39.9,79,29.73,-9999.0,NNW,19.6,28.8,N/A,,Unknown,340,2012-11-11 07:56:00
2:56 AM,45.0,39.0,80,29.74,-9999.0,NNE,13.8,-,N/A,,Unknown,20,2012-11-11 08:56:00
3:56 AM,45.0,39.0,80,29.74,-9999.0,NNW,12.7,27.6,N/A,,Unknown,340,2012-11-11 09:56:00
4:56 AM,39.0,30.9,73,29.81,-9999.0,North,18.4,26.5,N/A,,Unknown,360,2012-11-11 10:56:00
5:56 AM,36.0,28.0,73,29.85,-9999.0,North,18.4,26.5,N/A,,Unknown,360,2012-11-11 11:56:00
6:56 AM,34.0,25.0,70,29.89,-9999.0,North,18.4,28.8,N/A,,Unknown,350,2012-11-11 12:56:00
7:56 AM,34.0,25.0,70,29.93,-9999.0,North,17.3,26.5,N/A,,Unknown,350,2012-11-11 13:56:00
8:56 AM,33.1,21.9,64,29.96,-9999.0,North,18.4,27.6,N/A,,Unknown,350,2012-11-11 14:56:00
9:56 AM,34.0,21.9,61,30.01,-9999.0,NNW,20.7,29.9,N/A,,Unknown,340,2012-11-11 15:56:00
10:56 AM,33.1,21.0,61,30.04,-9999.0,NNW,18.4,27.6,N/A,,Unknown,340,2012-11-11 16:56:00
11:56 AM,35.1,18.0,50,30.04,-9999.0,North,20.7,27.6,N/A,,Unknown,10,2012-11-11 17:56:00
12:56 PM,37.9,19.0,47,30.04,-9999.0,NNW,19.6,24.2,N/A,,Unknown,340,2012-11-11 18:56:00
1:56 PM,39.9,19.0,43,30.06,-9999.0,NNW,15.0,24.2,N/A,,Unknown,340,2012-11-11 19:56:00
2:56 PM,39.9,18.0,41,30.08,-9999.0,North,17.3,25.3,N/A,,Unknown,350,2012-11-11 20:56:00
3:56 PM,39.9,18.0,41,30.12,-9999.0,North,12.7,21.9,N/A,,Unknown,350,2012-11-11 21:56:00
4:56 PM,37.9,15.1,39,30.16,-9999.0,NNW,13.8,-,N/A,,Unknown,340,2012-11-11 22:56:00
5:56 PM,34.0,17.1,50,30.21,-9999.0,NNW,5.8,-,N/A,,Unknown,340,2012-11-11 23:56:00
6:56 PM,33.1,19.9,59,30.24,-9999.0,North,3.5,-,N/A,,Unknown,10,2012-11-12 00:56:00
7:56 PM,30.9,19.9,64,30.27,-9999.0,Calm,Calm,-,N/A,,Unknown,0,2012-11-12 01:56:00
8:56 PM,30.0,21.9,72,30.29,-9999.0,Calm,Calm,-,N/A,,Unknown,0,2012-11-12 02:56:00
9:56 PM,28.9,21.9,75,30.31,-9999.0,NNW,3.5,-,N/A,,Unknown,340,2012-11-12 03:56:00
10:56 PM,26.1,21.0,81,30.33,-9999.0,NNW,3.5,-,N/A,,Unknown,330,2012-11-12 04:56:00
11:56 PM,25.0,19.9,81,30.34,-9999.0,North,3.5,-,N/A,,Unknown,360,2012-11-12 05:56:00